Location: Gollag?dem
(16.8053°N, 80.8024°E)
Time: 06:16:59
(UTC+00:00)

Hubble Space Telescope - Visible Passes

Search period start: 28 January 2022 00:00
Search period end: 07 February 2022 00:00
Orbit: 534 x 538 km, 28.5° (Epoch: 27 January)

Date Brightness Start Highest point End Pass type
(mag) Time Alt. Az. Time Alt. Az. Time Alt. Az.
28 Jan 1.5 14:06:43 10° W 14:10:30 44° NNW 14:10:30 44° NNW visible
29 Jan 1.7 13:55:39 10° W 13:59:26 35° NNW 14:00:01 34° N visible
30 Jan 2.1 13:44:38 10° WNW 13:48:15 29° NNW 13:49:31 24° NNE visible
31 Jan 2.3 13:33:39 10° WNW 13:37:05 25° NNW 13:38:58 18° NNE visible
01 Feb 2.5 13:22:42 10° WNW 13:25:55 22° NNW 13:28:25 13° NNE visible
02 Feb 2.7 13:11:46 10° WNW 13:14:47 19° N 13:17:47 10° NE visible
03 Feb 2.8 13:00:49 10° NW 13:03:38 18° N 13:06:27 10° NE visible
04 Feb 3.5 14:31:36 10° NW 14:32:01 12° NNW 14:32:01 12° NNW visible
05 Feb 3.1 14:20:16 10° NW 14:21:29 15° NNW 14:21:29 15° NNW visible
06 Feb 2.7 14:08:54 10° NW 14:10:59 19° N 14:10:59 19° N visible
